Waarnemingen

Advertentie
Mijn weer
Terschelling/Hoorn, Nederland (6251): temperatuur & dauwpunt: 20.05.2017 16:00:00 - 26.05.2017 16:00:00 (CEST)Terschelling/Hoorn, Nederland (6251): temperatuur 5cm: 20.05.2017 16:00:00 - 26.05.2017 16:00:00 (CEST)Terschelling/Hoorn, Nederland (6251): windsnelheid & windstoten: 20.05.2017 16:00:00 - 26.05.2017 16:00:00 (CEST)Terschelling/Hoorn, Nederland (6251): windrichting: 20.05.2017 16:00:00 - 26.05.2017 16:00:00 (CEST)Terschelling/Hoorn, Nederland (6251): luchtdruk: 20.05.2017 16:00:00 - 26.05.2017 16:00:00 (CEST)Terschelling/Hoorn, Nederland (6251): zicht: 20.05.2017 16:00:00 - 26.05.2017 16:00:00 (CEST)Terschelling/Hoorn, Nederland (6251): neerslag: 20.05.2017 16:00:00 - 26.05.2017 16:00:00 (CEST)
Datum & Tijd tt [°C] td [°C] tt 5cm [°C] ff [km/u] ff [kn] fx [km/u] fx [kn] dd ppp [hPa] vv [km] rr [mm]
26.05.2017 16:00:00 20,2 13,4 22,1 25 14 32 18 ONO 1022,6 32 0,0
26.05.2017 15:00:00 20,7 13,9 22,4 22 12 29 16 ONO 1022,9 37 0,0
26.05.2017 14:00:00 20,6 13,6 22,8 22 12 25 14 O 1023,3 25 0,0
26.05.2017 13:00:00 20,9 13,9 22,4 18 10 25 14 NO 1023,8 34 0,0
26.05.2017 12:00:00 20,2 13,6 22,4 14 8 18 10 O 1023,8 37 0,0
26.05.2017 11:00:00 18,2 14,4 21,1 11 6 14 8 O 1024,1 28 0,0
26.05.2017 10:00:00 17,5 14,8 19,7 11 6 14 8 OZO 1024,3 32 0,0
26.05.2017 09:00:00 16,6 13,9 17,8 11 6 14 8 O 1024,3 26 0,0
26.05.2017 08:00:00 15,3 13,8 15,8 11 6 14 8 O 1024,0 13 0,0
26.05.2017 07:00:00 13,0 13,0 12,4 7 4 11 6 ONO 1023,9 5 0,0
26.05.2017 06:00:00 8,0 7,9 5,7 11 6 11 6 NO 1024,1 0,1 0,0
26.05.2017 05:00:00 10,1 10,1 5,5 4 2 7 4 NNO 1024,2 0,1 0,0
26.05.2017 04:00:00 10,8 10,8 5,7 7 4 11 6 NNO 1024,0 0,4 0,0
26.05.2017 03:00:00 10,0 10,0 5,8 7 4 11 6 NNO 1024,0 1,9 0,0
26.05.2017 02:00:00 10,4 10,1 5,6 7 4 7 4 NNO 1024,3 16 0,0
26.05.2017 01:00:00 10,9 10,3 6,8 4 2 7 4 N 1024,6 28 0,0
26.05.2017 00:00:00 11,3 10,1 8,5 7 4 11 6 N 1024,6 47 0,0
25.05.2017 23:00:00 11,7 9,9 9,3 7 4 11 6 N 1024,6 40 0,0
25.05.2017 22:00:00 11,9 9,9 9,9 4 2 11 6 N 1024,7 26 0,0
25.05.2017 21:00:00 14,5 10,0 14,1 7 4 14 8 N 1024,5 48 0,0
25.05.2017 20:00:00 15,7 9,9 16,6 11 6 18 10 N 1024,6 42 0,0
25.05.2017 19:00:00 16,0 11,1 16,8 11 6 18 10 NNW 1024,8 44 0,0
25.05.2017 18:00:00 15,9 12,3 17,5 14 8 22 12 N 1025,2 37 0,0
25.05.2017 17:00:00 17,9 11,3 20,8 14 8 18 10 NNW 1025,5 29 0,0
25.05.2017 16:00:00 19,3 9,7 22,0 11 6 18 10 NNW 1025,5 39 0,0
25.05.2017 15:00:00 19,0 10,2 21,6 11 6 22 12 N 1025,8 42 0,0
25.05.2017 14:00:00 18,8 10,8 21,0 11 6 18 10 NNW 1026,1 39 0,0
25.05.2017 13:00:00 17,7 10,2 20,5 11 6 22 12 N 1026,2 35 0,0
25.05.2017 12:00:00 16,9 11,0 19,6 14 8 22 12 N 1026,3 27 0,0
25.05.2017 11:00:00 16,1 11,8 18,4 14 8 22 12 N 1026,0 38 0,0
25.05.2017 10:00:00 15,0 11,3 16,7 14 8 22 12 NNW 1025,8 38 0,0
25.05.2017 09:00:00 14,8 10,1 15,3 11 6 22 12 NW 1025,4 43 0,0
25.05.2017 08:00:00 13,5 11,6 13,5 11 6 18 10 NW 1025,5 38 0,0
25.05.2017 07:00:00 11,7 11,5 10,8 4 2 11 6 ZW 1025,0 13 0,0
25.05.2017 06:00:00 10,0 9,8 7,3 7 4 11 6 NNW 1024,9 16 0,0
25.05.2017 05:00:00 7,2 7,2 4,4 7 4 11 6 NNW 1024,9 4,7 0,0
25.05.2017 04:00:00 7,3 7,3 5,0 4 2 7 4 NNW 1025,0 0,3 0,0
25.05.2017 03:00:00 7,9 7,5 7,2 4 2 14 8 WNW 1024,8 6 0,0
25.05.2017 02:00:00 10,5 9,8 9,1 11 6 14 8 NNW 1025,0 18 0,0
25.05.2017 01:00:00 10,8 10,2 9,4 11 6 14 8 NW 1025,1 15 0,0
25.05.2017 00:00:00 10,5 10,0 9,0 11 6 14 8 NW 1024,8 12 0,0
24.05.2017 23:00:00 10,7 10,1 9,6 11 6 14 8 NW 1024,8 14 0,0
24.05.2017 22:00:00 11,5 10,5 10,5 11 6 22 12 NNW 1024,6 19 0,0
24.05.2017 21:00:00 12,4 11,0 12,0 18 10 25 14 NW 1024,4 21 0,0
24.05.2017 20:00:00 13,1 11,2 13,4 18 10 32 18 NNW 1024,3 26 0,0
24.05.2017 19:00:00 13,7 11,7 14,0 22 12 32 18 NW 1024,2 20 0,0
24.05.2017 18:00:00 14,5 12,2 16,1 25 14 36 19 NW 1024,1 25 0,0
24.05.2017 17:00:00 15,2 12,1 17,3 25 14 36 19 NW 1023,9 19 0,0
24.05.2017 16:00:00 16,3 12,4 18,4 22 12 36 19 NW 1023,9 22 0,0
24.05.2017 15:00:00 16,5 11,6 18,3 22 12 32 18 WNW 1023,6 24 0,0
24.05.2017 14:00:00 16,8 12,1 17,5 18 10 29 16 W 1023,6 26 0,0
24.05.2017 13:00:00 16,3 12,4 17,3 14 8 22 12 W 1023,6 25 0,0
24.05.2017 12:00:00 16,0 11,7 17,0 14 8 22 12 W 1023,7 15 0,0
24.05.2017 11:00:00 16,2 11,4 16,9 11 6 18 10 W 1023,6 27 0,0
24.05.2017 10:00:00 15,7 10,5 16,1 11 6 11 6 W 1023,3 34 0,0
24.05.2017 09:00:00 14,8 10,0 14,8 7 4 11 6 W 1023,0 28 0,0
24.05.2017 08:00:00 14,2 10,0 14,1 7 4 14 8 WNW 1022,9 31 0,0
24.05.2017 07:00:00 11,9 10,2 11,1 4 2 7 4 W 1022,5 28 0,0
24.05.2017 06:00:00 10,6 8,7 8,9 4 2 7 4 W 1022,3 27 0,0
24.05.2017 05:00:00 11,3 8,2 10,3 7 4 14 8 WNW 1022,3 29 0,0
24.05.2017 04:00:00 10,3 7,7 8,7 11 6 14 8 WNW 1022,6 39 0,0
24.05.2017 03:00:00 7,9 6,6 6,4 11 6 14 8 W 1022,4 22 0,0
24.05.2017 02:00:00 8,6 7,4 7,5 11 6 14 8 W 1022,5 20 0,0
24.05.2017 01:00:00 9,0 7,7 8,0 11 6 14 8 W 1022,7 22 0,0
24.05.2017 00:00:00 10,2 8,2 8,8 11 6 14 8 W 1022,8 25 0,0
23.05.2017 23:00:00 8,4 7,2 7,2 11 6 14 8 W 1022,7 22 0,0
23.05.2017 22:00:00 10,5 8,5 9,2 7 4 18 10 WNW 1022,4 22 0,0
23.05.2017 21:00:00 11,9 9,1 11,3 14 8 25 14 WNW 1021,7 25 0,0
23.05.2017 20:00:00 13,2 9,1 13,5 18 10 29 16 WNW 1021,3 25 0,0
23.05.2017 19:00:00 13,5 8,8 14,5 18 10 29 16 WNW 1021,3 20 0,0
23.05.2017 18:00:00 13,5 8,9 14,4 22 12 32 18 NW 1020,9 21 0,0
23.05.2017 17:00:00 13,6 9,4 15,1 25 14 36 19 NW 1020,5 23 0,0
23.05.2017 16:00:00 14,2 9,9 14,7 29 16 40 21 NW 1020,2 21 0,0
23.05.2017 15:00:00 14,9 10,0 15,8 29 16 43 23 NW 1019,4 28 0,0
23.05.2017 14:00:00 15,1 10,7 16,9 29 16 43 23 NW 1018,5 20 0,0
23.05.2017 13:00:00 15,4 11,4 16,9 29 16 47 25 NW 1017,6 21 0,0
23.05.2017 12:00:00 15,0 12,1 15,9 29 16 43 23 WNW 1016,8 18 0,0
23.05.2017 11:00:00 15,0 11,9 16,2 29 16 43 23 WNW 1015,9 17 0,0
23.05.2017 10:00:00 15,3 11,9 15,7 22 12 32 18 WNW 1015,0 13 0,0
23.05.2017 09:00:00 15,6 11,1 15,6 18 10 29 16 W 1014,5 17 0,0
23.05.2017 08:00:00 16,0 10,7 15,8 22 12 36 19 W 1014,2 18 0,0
23.05.2017 07:00:00 14,4 10,9 12,6 14 8 18 10 WZW 1013,8 14 0,0
23.05.2017 06:00:00 11,2 10,6 9,0 14 8 14 8 W 1013,6 9 0,0
23.05.2017 05:00:00 13,6 13,4 7,3 7 4 11 6 WZW 1013,5 0,4 0,0
23.05.2017 04:00:00 12,9 11,8 10,4 7 4 14 8 ZW 1013,7 8 0,0
23.05.2017 03:00:00 14,5 11,7 14,0 11 6 18 10 Z 1014,0 17 0,0
23.05.2017 02:00:00 17,0 12,8 16,0 14 8 22 12 ZZO 1014,2 24 0,0
23.05.2017 01:00:00 17,2 13,1 15,4 11 6 18 10 ZO 1014,5 29 0,0
23.05.2017 00:00:00 17,8 14,8 16,9 14 8 22 12 OZO 1014,8 28 0,0
22.05.2017 23:00:00 17,4 14,9 14,7 14 8 18 10 O 1015,3 31 0,0
22.05.2017 22:00:00 14,1 12,0 13,0 11 6 14 8 NO 1015,8 22 0,0
22.05.2017 21:00:00 14,9 11,6 14,0 11 6 18 10 NO 1015,9 17 0,0
22.05.2017 20:00:00 17,1 12,0 16,7 11 6 22 12 NO 1016,2 31 0,0
22.05.2017 19:00:00 18,8 12,2 18,8 14 8 22 12 NO 1016,5 27 0,0
22.05.2017 18:00:00 20,1 12,1 20,4 14 8 22 12 NO 1017,0 34 0,0
22.05.2017 17:00:00 20,9 10,1 22,1 14 8 18 10 NNO 1017,6 34 0,0
22.05.2017 16:00:00 21,9 9,4 24,1 11 6 18 10 ZW 1018,4 30 0,0
22.05.2017 15:00:00 22,0 9,8 24,2 11 6 18 10 ZW 1018,7 36 0,0
22.05.2017 14:00:00 21,4 9,3 23,4 4 2 14 8 ZZO 1019,1 28 0,0
22.05.2017 13:00:00 20,4 10,2 23,2 7 4 14 8 O 1019,7 30 0,0
22.05.2017 12:00:00 19,4 12,3 21,7 11 6 18 10 O 1020,3 22 0,0
22.05.2017 11:00:00 17,7 12,5 19,9 14 8 18 10 O 1020,7 24 0,0
22.05.2017 10:00:00 16,5 11,9 18,5 11 6 18 10 O 1021,1 23 0,0
22.05.2017 09:00:00 15,1 11,1 16,1 14 8 22 12 O 1021,3 19 0,0
22.05.2017 08:00:00 13,5 10,1 13,8 18 10 29 16 O 1021,5 23 0,0
22.05.2017 07:00:00 12,9 9,1 12,7 29 16 32 18 O 1021,9 29 0,0
22.05.2017 06:00:00 12,6 7,7 11,7 25 14 32 18 O 1022,1 43 0,0
22.05.2017 05:00:00 13,0 7,8 11,7 25 14 29 16 O 1022,4 50 0,0
22.05.2017 04:00:00 12,3 8,4 11,1 22 12 29 16 O 1022,9 45 0,0
22.05.2017 03:00:00 12,1 8,6 10,9 18 10 22 12 O 1023,5 36 0,0
22.05.2017 02:00:00 12,2 9,1 11,1 18 10 25 14 O 1023,9 43 0,0
22.05.2017 01:00:00 12,6 9,5 10,9 18 10 22 12 O 1024,3 40 0,0
22.05.2017 00:00:00 9,9 8,5 7,6 11 6 14 8 ONO 1024,6 20 0,0
21.05.2017 23:00:00 9,6 8,3 7,5 11 6 18 10 NO 1024,7 24 0,0
21.05.2017 22:00:00 9,6 8,2 7,3 14 8 18 10 NO 1024,9 23 0,0
21.05.2017 21:00:00 11,9 8,7 11,0 7 4 7 4 NO 1025,0 28 0,0
21.05.2017 20:00:00 14,3 8,4 15,1 11 6 14 8 NW 1025,3 35 0,0
21.05.2017 19:00:00 16,3 8,8 17,8 7 4 14 8 W 1025,6 40 0,0
21.05.2017 18:00:00 15,5 9,6 17,6 11 6 14 8 ZZO 1026,1 32 0,0
21.05.2017 17:00:00 16,4 8,6 18,5 14 8 22 12 ZZW 1026,5 39 0,0
21.05.2017 16:00:00 16,0 9,1 18,5 18 10 25 14 ZW 1026,8 33 0,0
21.05.2017 15:00:00 16,5 7,7 18,4 22 12 32 18 WZW 1027,0 35 0,0
21.05.2017 14:00:00 15,6 10,1 17,4 22 12 32 18 WZW 1027,2 26 0,0
21.05.2017 13:00:00 15,7 11,0 17,7 22 12 32 18 WZW 1027,2 27 0,0
21.05.2017 12:00:00 15,2 11,6 15,3 22 12 32 18 WZW 1027,1 24 0,0
21.05.2017 11:00:00 14,6 11,2 14,4 22 12 32 18 WZW 1026,7 18 0,0
21.05.2017 10:00:00 14,7 10,6 15,5 22 12 32 18 ZZW 1026,6 30 0,0
21.05.2017 09:00:00 13,6 9,9 14,3 22 12 29 16 ZW 1026,1 28 0,0
21.05.2017 08:00:00 13,3 10,1 13,4 22 12 29 16 ZW 1025,6 32 0,0
21.05.2017 07:00:00 12,4 9,5 11,9 22 12 36 19 ZW 1025,2 29 0,0
21.05.2017 06:00:00 12,1 8,2 11,1 29 16 36 19 ZW 1025,0 38 0,0
21.05.2017 05:00:00 12,1 8,9 11,0 22 12 36 19 ZW 1024,6 49 0,0
21.05.2017 04:00:00 12,6 7,8 11,1 22 12 32 18 ZZW 1024,7 41 0,0
21.05.2017 03:00:00 11,8 8,5 10,7 18 10 29 16 ZW 1024,7 42 0,0
21.05.2017 02:00:00 12,2 8,6 11,1 22 12 29 16 ZW 1024,5 50 0,0
21.05.2017 01:00:00 12,4 8,5 11,4 18 10 25 14 ZZW 1024,4 50 0,0
21.05.2017 00:00:00 12,7 8,5 11,4 18 10 25 14 ZZW 1024,1 47 0,0
20.05.2017 23:00:00 12,6 7,9 11,7 22 12 29 16 ZZW 1023,8 47 0,0
20.05.2017 22:00:00 13,0 6,6 12,1 22 12 29 16 ZZW 1023,7 50 0,0
20.05.2017 21:00:00 13,4 7,2 12,9 22 12 32 18 ZZW 1023,1 45 0,0
20.05.2017 20:00:00 14,2 7,2 14,2 22 12 32 18 ZZW 1022,9 44 0,0
20.05.2017 19:00:00 14,8 7,4 15,3 22 12 36 19 ZZW 1022,2 44 0,0
20.05.2017 18:00:00 15,1 8,5 16,2 29 16 40 21 ZW 1021,9 34 0,0
20.05.2017 17:00:00 15,8 8,5 17,2 25 14 36 19 ZZW 1021,5 36 0,0
20.05.2017 16:00:00 16,0 9,5 17,6 25 14 36 19 ZW 1021,1 32 0,0

tt = temperatuur
td = dauwpunt
tt 5cm = temperatuur 5cm
ff = windsnelheid
fx = windstoten
dd = windrichting
ppp = luchtdruk
vv = zicht
rr = neerslag

Weerstations in de omgeving